Regional Weather Roundup
Issued by NWS

Home | Current Version | Previous Version | Text Only | Print | Product List | Glossary Off
Versions: 1 2 3 4 5 6 7 8 9 10 11 12 13 14 15 16 17 18 19 20 21 22 23 24 25 26 27 28 29 30 31 32 33 34 35 36 37 38 39 40 41 42 43 44 45 46 47 48 49 50

000
ASUS43 KLOT 252304
RWRIL

ILLINOIS REGIONAL WEATHER ROUNDUP
NATIONAL WEATHER SERVICE CHICAGO/ROMEOVILLE IL
600 PM CDT SUN JUN 25 2017

NOTE: "FAIR" INDICATES FEW OR NO CLOUDS BELOW 12,000 FEET WITH NO
SIGNIFICANT WEATHER AND/OR OBSTRUCTIONS TO VISIBILITY.

* THESE STATIONS ARE NOT UNDER NWS QUALITY CONTROL. THEY ALSO MAY NOT
  REPORT WEATHER SUCH AS PRECIPITATION OR FOG.

ILZ001-002-007-009-015-016-024-260000-
NORTHWEST ILLINOIS

CITY           SKY/WX    TMP DP  RH WIND       PRES   REMARKS
MOLINE         MOSUNNY   70  48  45 NW12      30.15S
STERLING*      CLOUDY    65  50  58 NW13      30.15R
SAVANNA*       PTSUNNY   67  50  53 W14G21    30.14S
$$

ILZ003-004-008-010-011-017-018-260000-
NORTH CENTRAL ILLINOIS

CITY           SKY/WX    TMP DP  RH WIND       PRES   REMARKS
ROCKFORD       PTSUNNY   65  49  56 W10G22    30.12R
FREEPORT*      CLOUDY    64  49  58 W14       30.14S
ROCHELLE*      CLOUDY    64  50  59 W14G22    30.13S
DE KALB*       PTSUNNY   65  48  55 W15       30.12R
PERU*          CLOUDY    66  48  52 NW22      30.14R
$$

ILZ005-006-012>014-019>023-260000-
NORTHEAST ILLINOIS

CITY           SKY/WX    TMP DP  RH WIND       PRES   REMARKS
CHICAGO-OHARE  PTSUNNY   70  47  43 W17G28    30.06S
CHICAGO-MIDWAY PTSUNNY   71  47  42 W20       30.07F
AURORA         SUNNY     68  48  48 W20G28    30.11R
LANSING*       PTSUNNY   71  45  39 W14G23    30.08S
JOLIET*        PTSUNNY   71  48  44 W10G17    30.10R
WAUKEGAN       PTSUNNY   67  50  54 VRB7G17   30.05S
DUPAGE AIRPORT PTSUNNY   69  50  50 W18       30.08S
WHEELING       CLOUDY    68  50  52 W15       30.07S
MORRIS*        PTSUNNY   70  48  45 W22G30    30.09S
ROMEOVILLE*    PTSUNNY   69  44  40 W20       30.09S
NORTHERLY ISL    N/A     70  44  39 SW9         N/A
$$

LMZ740>746-260000-
SOUTHERN LAKE MICHIGAN

STATION/POSITION SKY/WX   TEMP    WIND        PRES    VSBY  WAVE
                          AIR SEA DIR/SP/G                  HT/PER
                          (F)     (DEG/KT/KT) (MB)    (MI)  (FT/S)
SOUTHERN BUOY              63 62  260/  6/  6 1017.4          2/ 4
WILMETTE HARBOR            67 64  270/ 12/ 17   N/A           2/ 2
HARRISON CRIB              69     290/ 18/ 20   N/A
BURNHAM HARBOR             70                   N/A
CALUMET HARBOR             70     230/  8/ 15 1017.6F
BURNS HARBOR               68     280/ 11/ 14 1018.3F
MICHIGAN CITY              68     270/  9/ 10   N/A
MICHIGAN CITY 6N           68 67  280/  6/  8   N/A           2/ 4
ST. JOSEPH                 67 69  260/  8/ 10 1018.0F         2/ 4
$$

ILZ025>027-034>036-040-047-049-050-058-095>099-260000-
WEST-CENTRAL ILLINOIS

CITY           SKY/WX    TMP DP  RH WIND       PRES   REMARKS
QUINCY         SUNNY     73  45  36 NW14      30.19S
GALESBURG*     MOSUNNY   71  47  43 NW16      30.17S
MACOMB*        SUNNY     72  46  39 W12G18    30.19S
JACKSONVILLE*  MOSUNNY   73  45  36 NW14G20   30.18S
PITTSFIELD*    SUNNY     74  47  38 NW12      30.19F
$$

ILZ028>032-037-038-041>044-048-051>054-059>061-260000-
CENTRAL ILLINOIS

CITY           SKY/WX    TMP DP  RH WIND       PRES   REMARKS
PONTIAC        CLOUDY    70  48  44 W17       30.14R
BLOOMINGTON    MOSUNNY   71  47  42 NW17      30.15S
DECATUR        MOSUNNY   74  45  35 W10G23    30.15S
PEORIA         MOSUNNY   72  48  42 NW9       30.15S
LACON*         MOSUNNY   69  50  49 NW12G22   30.13S
LINCOLN*       PTSUNNY   74  47  37 NW8G17    30.15S
SPRINGFIELD    MOSUNNY   76  47  35 NW16G22   30.16S
TAYLORVILLE    SUNNY     73  47  38 NW12G22   30.15S
$$

ILZ033-039-045-046-055>057-062-063-260000-
EAST-CENTRAL ILLINOIS

CITY           SKY/WX    TMP DP  RH WIND       PRES   REMARKS
CHAMPAIGN      MOSUNNY   73  45  36 NW15      30.13F
RANTOUL*       MOSUNNY   74  47  38 W17       30.13S
MATTOON        SUNNY     75  48  38 NW16      30.13S
PARIS*         MOSUNNY   74  48  40 W16       30.13S
$$

ILZ079-100>102-260000-
SOUTHWEST ILLINOIS

CITY           SKY/WX    TMP DP  RH WIND       PRES   REMARKS
BELLEVILLE     SUNNY     82  46  28 NW16G24   30.15F HX  80
CAHOKIA*       SUNNY     83  41  22 W14G21    30.14F HX  81
SPARTA*        SUNNY     82  47  29 W12       30.15F HX  80
$$

ILZ064>066-069>071-074>076-080>082-084>086-088>090-092>094-260000-
SOUTH-CENTRAL ILLINOIS

CITY           SKY/WX    TMP DP  RH WIND       PRES   REMARKS
CARBONDALE     MOSUNNY   82  52  35 W6        30.14F HX  81
CAIRO*         SUNNY     84  52  33 NW7       30.14F HX  82
EFFINGHAM*     SUNNY     78  47  33 W17G23    30.15S
MT. VERNON     SUNNY     80  47  31 W9G16     30.14F
CENTRALIA*     SUNNY     82  48  31 W17G25    30.13F HX  80
SALEM*         SUNNY     80  46  29 NW16G22   30.14S
METROPOLIS*    SUNNY     83  51  32 NW8       30.15F HX  82
$$

ILZ067-068-072-073-078-083-087-091-260000-
SOUTHEAST ILLINOIS

CITY           SKY/WX    TMP DP  RH WIND       PRES   REMARKS
LAWRENCEVILLE  SUNNY     79  47  32 NW15      30.12F
FLORA*         MOSUNNY  N/A N/A N/A NW13G18   30.13F
FAIRFIELD*     SUNNY     80  46  30 NW5       30.12F
HARRISBURG*    SUNNY     82  52  36 NW8       30.14F HX  81
ROBINSON*      MOSUNNY   76  46  35 W18       30.13F
CARMI*         SUNNY     80  51  35 NW13G24   30.13S HX  80
$$

ABBREVIATIONS USED IN REMARKS
   TC - TEMPERATURE IN CELSIUS
  WCI - WIND CHILL INDEX
   HX - HEAT INDEX
  VSB - VISIBILITY
$$




USA.gov is the U.S. government's official web portal to all federal, state and local government web resources and services.